Wind_Speed
23 23 23 23 23 23 23 22 22 22 21 22 24 24 24 24 25 25 25 24 24 24 24 24 24 25 26 25 26 26 25 24 25 25 27 26 24 26 26 24 21 14 13 22 24 19 18 19 19 21 22 25 29 31 32 34 39 41 40 40 43 44 44
23 23 22 22 23 22 21 21 21 20 20 21 22 23 23 24 24 24 25 24 25 25 22 20 22 25 26 26 26 27 25 24 24 24 26 26 25 26 26 25 23 18 14 18 23 21 21 21 20 21 22 23 26 29 31 32 34 37 37 37 41 45 45
23 23 23 23 23 22 21 20 20 19 19 20 21 21 22 22 23 23 23 23 23 21 18 18 21 24 25 26 25 26 26 25 25 25 25 26 26 25 27 27 25 22 18 19 21 20 20 21 21 22 23 23 24 27 29 30 31 33 34 34 35 40 44
22 23 23 23 23 22 22 22 22 21 21 21 21 20 19 19 19 20 19 19 18 17 16 17 20 22 22 24 25 25 25 26 26 26 26 27 26 25 26 27 25 24 23 22 21 19 20 21 22 23 24 24 23 25 27 29 30 29 31 34 33 33 38
22 22 22 22 22 22 22 22 23 23 23 23 23 22 21 19 19 19 18 18 18 17 18 18 19 20 20 21 24 25 25 26 27 27 27 27 26 25 24 25 25 26 26 24 22 19 17 20 21 21 23 24 23 23 24 26 27 27 28 32 33 32 33
22 22 22 23 22 23 23 23 23 23 23 23 24 24 23 22 21 21 20 19 19 19 20 19 19 21 21 21 23 25 26 27 26 27 28 26 26 25 23 23 24 24 24 24 24 20 14 15 19 20 20 22 23 22 22 20 21 23 25 27 29 33 34
22 22 22 22 23 23 23 23 23 23 23 23 24 24 24 23 22 22 21 21 22 21 21 21 22 23 24 23 24 26 29 29 26 26 28 28 27 25 22 21 22 24 25 23 21 19 14 14 18 19 18 19 21 22 21 18 15 16 21 24 27 29 32
22 22 21 22 22 22 22 23 23 23 23 23 23 24 24 23 22 23 22 22 23 22 24 27 27 28 29 27 26 26 26 28 26 27 31 30 25 22 20 19 19 22 24 20 17 17 14 12 14 15 15 15 16 16 18 21 20 18 18 21 23 24 26
21 21 21 21 21 21 21 21 21 21 22 22 22 22 22 22 23 25 24 23 22 23 28 33 32 32 32 29 27 25 23 25 27 29 28 24 19 18 18 17 17 19 18 16 15 16 15 12 11 13 13 13 16 19 20 21 20 16 15 15 15 18 22
21 21 20 20 20 21 20 19 19 21 22 23 22 21 20 20 22 23 23 23 22 22 26 30 31 30 31 28 25 24 22 23 27 28 26 20 17 18 18 16 17 18 17 14 14 16 16 14 12 13 15 15 21 25 21 17 16 14 12 12 9 11 17
21 21 21 21 21 21 21 22 22 23 24 25 25 24 22 21 21 21 21 22 22 21 22 24 25 25 26 27 26 23 20 21 24 27 27 24 21 19 18 18 17 17 16 14 14 15 16 14 13 14 16 15 18 20 19 20 21 16 13 13 9 6 11
23 23 22 21 22 23 24 25 25 24 25 25 25 24 24 23 22 21 21 21 21 21 20 20 21 21 22 25 25 21 18 18 20 22 24 24 24 23 22 21 20 19 16 15 15 16 16 15 13 15 18 17 15 15 17 20 20 18 18 17 13 9 10
25 24 23 22 22 23 24 26 25 23 23 24 24 23 23 24 24 23 23 22 21 21 20 20 20 19 19 22 24 22 18 17 18 19 20 21 22 23 24 25 25 24 21 19 17 16 16 16 13 13 19 23 20 15 14 14 15 17 19 18 18 18 17
25 25 24 23 23 22 23 24 23 21 20 21 21 21 22 24 25 25 26 25 24 22 22 21 20 19 18 21 25 24 20 18 18 17 18 19 19 20 22 24 26 27 26 25 23 19 18 17 16 15 17 21 22 19 17 16 17 19 20 22 25 23 18
23 24 25 23 21 22 23 24 22 19 19 20 20 20 22 25 27 27 27 28 27 25 23 22 21 20 19 20 25 26 23 20 18 17 17 17 17 19 21 22 24 26 27 28 27 25 22 18 16 17 17 17 20 23 24 22 23 24 24 24 22 17 14
20 21 23 23 20 20 23 24 21 17 17 18 18 19 19 21 27 30 29 28 28 26 24 23 22 21 20 21 25 28 27 24 20 17 17 16 17 18 19 21 24 25 26 27 27 27 26 21 18 18 18 18 19 22 25 23 20 20 19 16 12 11 13
21 19 19 22 21 20 23 25 22 18 17 17 17 18 17 15 19 25 28 28 26 25 24 23 22 22 20 20 26 31 30 27 22 18 17 17 17 18 18 21 24 25 24 24 24 25 26 25 23 20 19 19 18 21 23 21 16 16 17 14 10 8 11
22 21 19 21 25 24 23 24 23 20 18 16 16 16 15 13 14 15 20 24 22 22 22 22 23 23 21 21 26 31 32 28 24 20 19 18 17 18 19 21 22 23 23 22 22 23 25 26 23 20 19 19 19 20 22 22 20 20 20 18 15 13 12
17 20 23 25 28 27 23 24 24 21 18 16 16 15 13 12 12 10 10 15 17 19 21 20 21 23 24 24 27 30 31 29 25 22 21 20 17 19 22 21 20 20 20 19 19 21 24 25 23 20 19 18 18 19 21 23 23 23 21 19 19 17 13
18 21 24 27 27 27 24 23 23 22 19 16 15 14 13 11 10 8 6 7 10 14 18 19 19 20 23 24 26 27 29 29 28 26 24 22 19 21 23 20 19 20 20 18 18 20 22 23 22 21 19 18 17 19 20 22 23 23 22 20 19 18 14
25 22 24 24 24 24 25 23 22 20 18 15 13 12 11 10 10 9 6 5 5 7 10 14 16 17 19 21 23 24 26 27 28 27 26 24 24 24 22 18 17 19 20 20 19 18 18 19 19 18 17 16 17 18 19 21 23 24 23 21 19 17 15
25 21 21 21 20 22 23 21 19 17 14 13 12 10 9 9 10 10 10 8 7 6 6 7 9 11 13 16 18 20 23 25 27 27 27 27 28 26 23 21 19 18 18 18 17 16 16 17 18 19 18 15 15 17 19 21 22 23 23 22 22 20 17
22 19 19 21 21 22 23 19 15 13 11 12 12 10 9 9 9 9 10 10 10 9 8 7 7 7 8 11 13 15 18 20 23 27 29 30 30 29 26 24 23 20 18 17 16 16 16 17 18 18 17 15 14 14 17 19 19 20 22 21 21 21 19
20 18 19 22 23 23 22 18 14 12 11 12 11 8 8 8 7 7 8 9 10 10 10 9 9 8 9 10 12 13 15 16 18 20 21 23 25 27 26 25 24 21 17 16 16 16 17 17 18 17 15 14 13 13 16 18 18 18 20 20 19 19 17
18 18 19 21 21 22 21 17 13 11 12 12 10 7 7 6 3 4 6 8 9 8 9 9 9 10 10 10 10 12 13 14 16 17 18 18 19 19 20 24 24 19 15 16 16 15 15 16 17 18 18 16 16 17 18 20 19 17 18 19 18 16 15
17 18 19 20 22 24 22 15 10 11 13 14 14 12 11 9 6 3 3 4 5 6 7 8 8 8 9 9 9 10 10 11 13 14 15 18 19 17 16 19 22 20 17 16 16 15 16 16 15 17 19 19 20 21 21 21 21 19 18 18 17 15 13
17 18 19 20 22 24 21 15 13 14 13 12 12 13 12 10 8 7 5 4 3 4 4 5 6 6 6 6 8 9 9 10 12 12 11 13 16 16 17 17 19 22 21 19 18 17 16 17 17 18 20 21 21 22 23 23 23 22 19 18 17 15 13
17 18 18 19 20 20 19 17 17 18 17 14 13 12 11 10 9 8 7 6 5 5 5 5 5 4 4 4 4 4 4 6 7 9 9 11 12 15 17 17 18 21 23 21 20 18 17 19 20 22 23 21 20 23 25 25 23 22 21 20 18 14 13
16 17 17 17 17 17 17 17 17 18 17 15 14 13 12 11 10 8 7 7 7 6 4 3 3 3 3 4 3 3 3 3 4 5 6 8 10 12 14 16 17 18 19 20 19 18 20 20 18 19 22 19 19 24 27 26 24 23 22 21 16 13 13
17 17 18 17 17 16 16 17 18 18 16 14 13 13 13 11 10 8 7 7 6 4 3 4 4 4 4 5 4 4 4 4 5 5 6 6 6 7 9 12 14 15 16 20 20 20 23 19 13 15 19 17 17 23 26 24 24 24 22 19 14 12 12
18 18 19 19 19 18 17 18 20 19 16 14 12 12 12 11 9 8 8 6 5 5 6 6 5 4 5 5 4 5 5 5 5 5 5 6 5 4 4 4 8 10 12 17 19 22 25 19 12 14 17 17 20 24 21 20 23 25 22 16 13 13 13
19 20 20 21 21 20 19 20 21 19 17 15 12 10 10 10 8 8 7 6 6 7 8 8 6 6 7 6 5 6 5 5 5 5 5 6 6 5 5 3 1 4 8 13 16 20 24 21 16 15 17 20 23 22 17 16 20 22 20 15 13 15 16
19 21 21 21 22 22 21 20 20 20 18 16 13 9 8 9 10 11 9 9 10 10 9 8 8 7 7 7 6 6 5 4 5 5 5 5 5 5 6 6 4 1 4 8 13 17 20 20 19 19 20 21 22 20 19 17 16 16 16 15 15 16 16
21 22 22 22 23 24 22 20 20 21 19 17 13 10 9 11 12 14 15 15 13 10 8 8 8 7 6 6 5 5 5 5 5 5 6 6 5 4 5 5 4 3 3 5 9 13 16 18 19 21 21 22 21 21 21 17 14 15 17 17 16 16 14
21 22 21 21 22 24 23 20 20 21 20 17 13 10 11 13 14 15 16 15 12 9 7 7 7 6 6 5 6 7 8 7 6 6 6 7 6 5 5 5 5 4 4 5 7 10 13 15 17 18 20 21 20 19 17 13 12 16 20 18 17 18 17
19 20 19 19 22 25 24 20 18 18 18 17 15 14 14 15 14 12 11 11 10 9 8 7 7 8 8 8 9 10 10 9 9 8 8 8 7 6 5 5 5 4 4 4 5 7 10 11 13 15 17 19 19 18 16 15 15 17 18 17 18 20 20
Wind_Direction
283 281 279 278 276 274 273 271 269 265 259 256 255 256 258 258 257 256 257 257 257 257 256 255 254 252 249 246 244 245 243 241 242 245 246 246 243 243 245 245 245 248 257 257 251 244 247 250 250 254 257 252 245 239 236 236 236 236 235 235 233 229 226
283 281 279 278 276 275 272 270 268 265 259 256 255 256 257 256 256 255 255 254 253 252 255 261 263 259 251 245 243 243 242 241 242 246 246 245 241 238 241 243 242 243 250 255 251 242 241 244 244 245 250 250 246 240 237 235 235 234 234 234 236 233 229
284 282 279 277 276 273 271 270 268 265 262 259 258 258 257 254 253 253 251 249 247 248 257 267 273 270 254 243 244 243 241 240 241 244 247 245 241 238 239 241 240 239 243 252 253 244 235 235 236 238 242 246 246 242 238 235 235 234 231 231 234 236 233
284 282 279 276 274 271 269 267 266 265 263 261 262 264 263 258 256 257 256 253 251 255 264 266 273 278 265 246 242 243 241 241 240 241 243 242 242 241 239 238 237 237 240 248 252 245 234 230 232 235 238 239 240 239 237 236 236 234 230 229 230 233 235
285 282 278 275 273 270 268 267 265 263 262 260 260 261 264 264 263 264 265 263 262 263 267 268 270 277 276 259 247 243 243 244 239 238 240 241 242 242 237 233 235 237 238 242 248 246 236 228 227 231 234 235 233 231 232 233 233 233 232 231 230 230 231
285 281 277 274 272 270 268 267 265 263 261 259 257 257 260 262 261 262 263 262 264 263 263 266 270 273 277 274 260 247 243 245 242 239 239 237 235 235 232 231 233 234 236 241 245 246 235 222 220 221 225 230 228 223 220 221 226 231 232 232 232 231 230
285 281 278 274 271 269 267 266 263 261 259 258 256 255 257 258 258 259 260 259 260 260 260 264 269 272 275 276 271 256 245 245 245 241 238 235 232 230 228 228 229 230 233 238 242 242 235 220 217 217 218 223 222 218 216 213 213 221 226 228 230 230 230
285 282 279 274 271 269 266 264 262 259 256 254 253 252 253 255 255 256 258 260 258 257 262 267 270 273 273 273 275 267 250 242 243 242 240 237 233 228 222 221 226 228 229 232 236 240 238 221 209 208 210 210 203 202 213 216 213 214 219 222 225 228 228
285 282 278 275 272 269 266 263 260 257 253 251 249 249 249 250 252 255 257 259 259 257 264 271 272 273 274 271 273 273 258 244 243 244 240 232 226 227 222 217 223 225 223 225 230 236 240 231 208 197 192 188 192 202 211 213 212 217 222 217 218 226 228
286 282 278 275 271 268 265 261 258 255 252 251 248 246 246 247 249 253 254 256 257 256 262 268 269 269 271 270 270 271 262 249 246 243 237 229 224 227 223 218 222 225 223 225 228 232 235 231 216 202 194 194 206 211 209 203 202 211 216 206 205 224 229
289 285 281 277 274 272 267 264 264 261 257 255 252 248 247 248 249 251 251 250 252 253 254 259 260 260 263 266 268 268 261 251 245 241 238 236 233 230 226 222 223 225 224 227 231 232 231 226 213 205 201 204 209 207 203 204 204 201 196 192 196 214 223
299 296 293 287 283 281 279 278 277 271 263 259 256 252 247 246 247 249 248 246 246 248 249 249 250 249 251 258 263 265 262 255 246 240 238 239 239 238 236 232 229 229 226 224 229 234 234 230 216 204 204 210 210 202 202 207 205 202 200 199 202 209 218
310 307 304 300 294 291 289 291 290 282 271 263 259 255 250 245 244 244 245 245 244 243 243 243 245 245 244 252 260 262 262 258 251 245 242 244 245 245 245 242 239 238 236 230 230 233 236 237 230 212 211 219 222 213 201 198 198 202 203 203 210 217 223
315 313 312 308 305 302 299 300 305 298 282 270 263 258 251 245 242 242 242 243 242 242 241 239 240 240 240 248 256 258 258 256 255 255 252 251 251 249 248 247 244 243 242 239 239 240 241 243 240 233 226 225 225 222 215 208 206 209 209 213 219 223 224
314 315 317 314 310 307 307 312 317 310 291 280 274 266 256 245 240 239 238 239 239 240 241 238 237 238 238 244 251 254 256 257 258 261 259 255 254 251 249 248 245 243 242 240 240 242 244 243 240 239 240 232 224 224 226 225 223 224 223 220 219 216 214
311 312 315 317 314 307 310 318 323 317 304 294 288 285 276 257 243 237 233 233 233 235 239 238 236 237 237 240 248 251 253 256 259 261 258 253 252 254 253 250 247 245 243 242 242 242 242 241 238 241 245 240 232 231 229 225 225 226 221 210 202 200 203
316 313 311 314 316 311 310 317 324 323 313 303 295 295 296 284 263 245 234 230 228 227 234 236 234 235 235 237 246 251 252 255 254 252 249 246 247 251 252 251 250 247 244 243 244 243 241 239 240 244 248 246 245 241 229 215 208 208 203 197 197 202 204
318 319 315 314 320 319 312 313 321 324 317 309 302 299 296 297 297 270 240 230 224 220 229 234 233 233 233 234 244 249 251 251 246 239 238 241 243 245 247 247 247 245 244 244 244 243 241 239 239 243 248 249 251 248 233 217 208 201 195 196 205 209 204
309 314 319 321 325 326 319 314 319 324 321 312 304 303 299 294 301 298 252 230 221 218 224 231 233 233 231 233 243 248 249 247 239 232 234 237 239 243 244 243 239 237 238 239 238 238 239 239 238 237 240 245 249 247 239 232 224 210 199 201 207 205 192
311 310 316 321 323 324 323 317 318 323 324 313 301 300 300 291 288 297 280 239 225 222 222 224 229 232 232 236 243 245 246 244 238 233 234 234 234 239 241 240 236 233 233 232 232 234 236 237 237 234 233 236 240 239 237 237 231 217 209 209 208 203 195
321 314 313 316 317 319 322 319 317 321 320 313 305 302 301 290 277 277 278 262 243 236 230 227 228 232 236 242 247 245 243 243 239 234 232 231 233 237 238 237 235 233 233 233 234 234 231 230 231 227 221 222 226 227 229 230 226 220 218 215 208 204 200
322 313 310 315 318 321 323 321 320 320 316 310 307 304 302 291 275 270 271 269 264 264 261 247 238 237 238 241 245 245 244 243 241 236 233 233 234 235 235 235 234 234 232 231 228 226 223 222 219 210 202 203 209 216 221 223 221 220 220 218 214 210 206
317 313 317 324 326 327 326 324 326 327 326 322 315 307 302 293 277 268 265 265 270 275 277 273 265 262 258 250 246 246 245 244 243 239 238 239 239 238 236 233 231 231 229 224 218 217 219 220 214 201 192 192 197 205 212 213 212 215 216 215 216 216 214
318 324 330 330 328 327 327 328 332 336 337 334 327 321 317 305 284 265 258 263 273 278 282 282 277 276 278 271 261 255 251 251 249 246 245 246 246 244 239 232 226 223 219 215 212 212 216 219 215 202 191 187 186 191 200 202 203 209 211 209 211 212 212
325 334 336 330 327 329 329 330 338 349 357 1 2 3 357 344 313 259 251 260 270 277 281 281 280 279 279 277 271 263 259 258 257 257 257 256 256 254 244 233 224 214 205 207 209 210 213 216 213 203 195 193 193 194 196 197 194 195 198 200 202 203 203
334 340 337 333 332 332 332 338 359 11 16 22 23 17 10 7 6 348 286 264 266 277 277 274 280 283 278 274 269 261 258 259 258 259 259 256 256 259 254 240 223 206 198 203 206 206 211 212 206 198 195 197 199 197 196 194 189 182 181 187 189 184 181
343 344 340 336 334 333 338 356 19 20 15 16 16 11 8 5 2 359 355 339 316 309 298 288 289 286 276 271 268 263 264 267 267 267 264 257 254 252 252 248 228 208 202 205 205 205 208 206 197 189 188 192 193 192 192 193 188 179 173 176 178 172 164
346 344 342 338 334 337 349 4 16 17 13 10 7 4 3 2 359 358 358 354 345 335 325 314 304 293 286 290 285 282 285 281 279 280 273 265 259 250 246 248 238 219 208 206 207 206 199 192 189 187 186 186 186 186 187 187 185 180 175 173 171 162 155
348 345 346 344 341 347 356 1 6 8 6 7 9 7 4 1 357 354 349 344 337 329 325 338 353 360 360 357 355 354 347 331 322 312 294 280 270 257 247 243 240 228 211 202 203 201 190 181 179 181 182 179 178 182 184 182 182 181 176 174 171 163 159
353 352 355 355 354 357 2 3 4 5 3 5 9 11 10 4 356 353 352 346 345 356 23 29 23 23 20 13 7 4 358 354 351 341 331 322 300 277 259 242 235 229 212 199 197 193 186 178 169 172 176 173 174 180 181 180 183 183 176 172 171 162 157
360 3 6 6 3 3 5 7 8 10 11 12 14 18 18 9 357 359 7 9 22 41 39 27 23 28 24 17 12 10 2 355 353 350 346 346 340 331 316 259 233 227 210 197 193 189 186 181 170 168 174 177 177 177 176 178 182 182 177 173 172 164 158
3 6 9 10 9 8 9 10 11 13 16 18 22 28 28 23 21 23 25 36 53 52 35 22 21 21 15 12 14 12 6 4 5 2 358 360 359 360 6 8 280 233 207 190 186 186 185 183 179 175 177 179 177 173 171 175 178 178 175 173 172 171 169
5 6 6 8 9 10 10 10 11 16 19 21 27 39 45 46 48 47 50 57 53 44 32 22 20 18 14 12 10 6 5 14 18 11 7 10 10 7 16 28 37 90 183 177 174 175 177 178 179 177 174 173 172 173 173 173 171 171 171 168 167 167 166
0 4 4 4 5 7 9 10 14 18 21 23 33 50 65 71 67 60 58 58 50 38 30 24 18 15 11 6 5 12 16 19 19 13 9 10 9 7 12 22 38 68 104 146 160 163 165 169 172 172 170 167 168 173 175 171 165 168 169 166 164 161 158
348 354 358 360 2 4 6 8 13 19 23 29 41 57 69 72 66 55 47 43 36 26 24 22 14 9 9 9 17 29 33 30 28 25 21 18 10 2 6 16 29 55 83 113 139 151 158 164 167 169 168 165 163 166 167 163 163 170 170 166 163 161 160
341 343 348 356 2 5 7 11 16 20 27 36 48 61 66 60 51 41 32 25 20 15 16 18 19 23 29 32 33 36 36 34 32 33 36 35 23 6 4 16 25 46 76 94 113 135 148 155 159 163 165 162 161 162 163 162 162 164 164 162 162 162 162
Height
772 770 768 767 765 763 762 761 759 758 757 756 755 754 754 753 753 752 751 751 751 751 751 749 749 748 749 750 750 748 747 747 748 749 749 749 750 751 752 752 751 749 748 747 747 746 745 746 747 747 747 747 748 748 749 750 751 753 756 759 761 762 765
769 767 765 764 762 760 759 758 756 755 754 753 752 751 751 750 750 749 748 748 747 747 746 745 745 744 744 745 745 744 744 744 744 745 745 745 746 746 747 749 748 747 746 745 744 744 743 744 745 745 745 745 745 745 746 746 747 749 752 754 756 758 760
766 764 762 761 759 757 756 755 753 752 751 750 749 748 748 747 746 746 745 744 743 743 743 742 742 741 740 741 740 740 740 740 741 742 742 742 742 742 743 745 745 744 743 742 741 741 741 741 742 742 742 742 742 743 744 744 745 746 748 750 752 754 756
763 761 759 757 756 754 753 752 751 750 749 748 747 746 744 744 743 742 741 740 740 740 740 740 739 738 737 736 736 735 736 736 737 738 738 738 739 739 739 741 742 741 741 740 739 738 738 738 739 739 740 740 741 742 743 743 744 744 745 747 749 751 753
760 758 756 754 753 751 750 748 747 746 745 744 744 743 742 741 740 739 738 738 737 737 737 737 736 736 734 733 732 732 732 733 733 733 734 734 735 735 736 737 738 738 738 737 736 736 736 735 736 737 737 738 739 740 741 742 743 744 744 745 746 748 750
757 755 753 751 749 748 746 745 744 742 741 741 740 739 738 738 737 736 736 735 735 734 734 734 733 733 731 730 729 728 728 729 729 730 730 730 731 731 732 733 734 734 735 734 734 734 733 733 733 734 735 735 737 738 739 741 742 743 743 743 744 745 746
754 752 750 748 746 744 743 741 740 739 738 737 736 735 735 734 734 733 732 732 732 731 731 730 730 729 728 727 726 725 724 725 726 726 727 727 727 728 729 730 730 731 731 731 731 731 731 730 731 732 733 733 735 736 738 739 740 741 740 741 742 742 743
750 748 746 744 742 741 739 737 736 735 733 733 732 731 731 730 730 729 728 728 728 728 727 727 726 726 725 724 723 722 721 721 722 723 723 723 724 724 725 726 727 728 728 728 728 728 728 728 728 730 731 732 734 735 736 736 737 737 737 738 739 740 741
747 745 742 740 739 737 735 734 732 730 729 728 728 727 727 726 725 725 724 724 724 723 723 722 722 722 721 721 720 719 718 718 719 720 720 720 721 722 722 723 724 725 725 726 726 726 726 727 727 728 729 730 731 731 731 733 734 735 736 737 738 738 738
744 741 739 737 735 733 731 729 727 726 724 724 723 723 723 722 721 721 720 720 720 719 719 718 718 718 717 717 717 716 716 715 716 717 717 718 719 719 720 721 721 722 723 723 723 723 724 724 724 725 726 727 727 727 729 731 732 734 735 736 737 737 737
740 738 735 733 731 729 727 725 722 721 720 719 719 719 719 718 717 717 716 716 716 715 715 715 714 714 714 714 714 713 713 713 713 714 715 715 716 717 718 718 719 720 720 720 721 721 721 721 721 722 723 724 724 725 727 728 729 731 732 734 735 735 735
737 734 732 730 727 725 722 720 718 716 715 715 715 715 715 715 714 713 713 712 712 711 711 711 711 711 711 711 711 711 710 710 710 711 712 713 714 714 715 716 717 717 717 718 719 718 718 718 718 718 719 721 722 723 724 725 726 728 729 731 732 732 732
733 730 728 726 724 721 719 716 714 712 712 711 711 711 711 711 710 709 709 708 708 707 707 707 707 707 707 707 707 708 708 708 708 709 710 711 711 712 712 713 714 715 715 716 716 716 716 716 716 716 716 718 720 722 723 724 725 725 727 728 729 729 730
730 727 725 723 720 718 715 712 710 709 708 707 707 707 707 706 706 705 704 704 704 703 703 703 704 704 704 703 704 705 706 706 706 707 708 708 709 709 710 710 711 712 713 713 714 714 714 714 715 715 716 717 718 720 721 721 722 723 724 724 725 727 729
728 725 722 720 718 715 712 709 707 706 705 704 704 703 702 701 700 699 699 699 699 699 699 700 700 700 700 700 701 702 703 704 704 705 705 706 706 706 707 707 707 708 709 710 711 711 712 713 713 714 716 716 717 718 718 719 719 720 721 722 724 727 728
727 723 720 717 715 713 710 706 705 703 702 701 700 699 698 696 694 693 693 693 694 695 696 696 696 696 697 697 697 699 700 702 703 703 704 704 704 704 704 704 704 705 706 707 708 709 710 711 711 712 714 715 716 716 717 718 719 719 721 722 724 726 727
725 722 719 715 713 711 708 704 702 701 700 698 697 696 694 692 690 689 688 688 689 690 692 692 692 693 693 693 694 695 697 699 701 701 701 701 701 702 702 701 701 702 703 704 705 706 707 708 709 710 711 713 714 715 716 717 718 718 719 721 722 724 725
723 720 717 714 711 708 706 702 699 698 697 695 695 694 692 690 688 686 684 684 685 686 688 688 689 689 690 690 691 692 694 696 698 699 699 699 699 700 699 698 698 700 701 702 702 703 704 705 707 708 708 710 711 712 713 714 715 716 718 719 720 721 722
723 718 715 711 708 705 703 700 697 695 694 692 692 691 690 688 686 684 683 683 683 684 685 685 685 686 686 687 687 689 691 693 695 696 696 696 697 697 695 695 696 697 698 699 700 701 701 702 704 705 706 707 708 709 710 711 712 713 715 717 718 719 721
722 717 713 709 706 702 700 698 695 693 691 690 689 688 687 686 685 683 682 681 681 681 682 682 682 682 683 683 684 685 687 689 691 692 693 694 694 692 691 693 694 695 695 697 697 698 699 700 701 702 703 704 706 707 707 708 710 711 712 714 716 717 718
720 716 711 707 703 700 697 695 693 691 689 688 687 686 685 684 683 682 682 681 680 680 680 680 680 680 680 680 681 682 684 685 686 688 689 689 689 688 689 691 692 692 693 694 695 695 696 698 699 700 701 702 703 704 705 707 708 709 710 712 713 714 715
718 713 709 705 702 699 696 693 691 689 687 686 685 684 684 683 682 681 681 680 679 679 679 678 678 678 678 678 679 680 681 681 683 684 685 685 684 685 687 689 689 690 691 691 692 693 694 695 696 697 698 700 701 702 704 705 707 708 709 711 712 713 713
716 712 708 705 701 698 695 692 690 688 686 685 684 683 682 681 680 680 679 679 678 678 678 677 677 677 677 677 677 678 678 679 679 680 681 681 681 682 684 685 686 688 688 689 690 691 691 692 693 694 695 697 699 701 702 704 706 707 708 710 711 712 713
715 712 709 705 701 697 693 691 689 687 686 684 682 681 680 679 679 678 678 678 678 677 677 676 676 676 676 676 676 676 676 676 676 677 677 677 678 679 681 682 683 684 685 686 687 688 689 690 691 692 693 695 697 699 701 703 704 706 707 709 711 712 714
716 713 710 706 702 697 693 691 689 687 686 684 682 681 680 678 678 677 677 677 676 676 676 675 675 675 674 674 674 674 674 674 674 674 675 675 676 677 678 678 679 681 682 683 684 685 686 688 689 690 691 693 695 697 699 701 703 705 707 708 710 712 713
717 714 711 707 702 698 694 692 690 688 687 685 683 682 680 679 678 676 676 676 675 675 675 674 674 673 673 673 673 673 673 673 672 673 673 673 674 674 675 675 676 677 678 680 681 683 684 686 687 688 689 691 693 695 697 699 701 704 706 707 709 711 713
718 715 712 708 704 700 696 693 691 689 688 686 684 683 681 680 679 677 676 676 675 674 674 673 673 672 672 672 672 671 671 671 671 671 671 671 672 672 672 673 673 673 675 676 678 680 682 683 685 686 688 690 692 694 696 697 699 702 704 706 708 710 712
720 717 714 710 706 702 699 696 693 692 690 688 686 685 683 682 680 679 678 677 675 675 674 673 673 672 672 672 671 671 671 670 670 670 669 669 670 670 670 671 671 671 671 673 675 677 679 681 682 684 686 688 690 692 695 697 699 700 702 705 707 709 711
722 719 715 712 709 705 702 699 696 694 692 690 688 686 685 683 681 680 679 677 676 675 674 673 673 672 672 672 671 671 671 670 670 669 669 668 668 667 668 668 668 669 669 670 672 674 676 678 680 682 684 686 689 691 693 695 697 699 701 704 706 708 710
723 720 716 713 710 707 705 702 699 696 693 691 689 687 686 684 682 681 679 678 676 676 675 674 673 673 672 672 672 671 671 670 670 669 668 668 667 666 666 666 666 666 667 667 669 671 673 675 678 680 682 685 687 689 692 694 696 698 700 703 705 707 709
723 720 717 714 710 707 705 703 699 697 694 691 690 688 686 684 682 681 679 678 677 676 676 675 675 674 674 673 673 672 672 671 671 670 669 668 667 666 665 665 664 665 665 665 667 668 670 673 675 677 680 682 685 688 690 693 695 697 699 702 703 705 708
722 719 716 714 711 708 705 702 700 697 695 692 690 688 686 685 683 681 680 678 678 677 677 677 676 675 675 674 674 673 673 672 672 671 670 669 668 667 666 665 665 664 664 664 665 666 668 671 673 676 678 680 683 687 689 692 694 696 698 701 703 704 707
721 718 715 713 711 708 706 704 701 698 695 693 691 689 687 685 684 682 681 680 679 679 679 678 678 677 677 676 675 675 674 673 673 672 671 670 670 669 668 667 666 665 665 664 664 665 667 669 672 674 677 679 682 685 688 690 693 695 698 700 702 704 707
720 717 715 713 711 709 707 705 702 699 696 694 692 690 688 687 685 684 683 681 681 682 681 681 680 679 678 678 677 676 675 675 674 674 673 672 671 670 669 668 667 667 666 666 666 666 667 669 671 673 675 678 681 684 686 689 692 694 696 699 701 704 707
720 718 717 715 712 710 708 705 702 700 697 695 693 691 689 687 686 685 685 685 684 684 684 683 682 681 680 680 678 677 676 676 675 675 674 674 673 672 671 670 669 668 668 668 668 668 669 670 672 673 675 677 680 682 685 688 690 692 694 697 700 703 706
724 721 718 716 713 710 708 705 703 701 699 697 694 692 690 689 689 689 689 688 687 687 686 685 684 683 682 681 680 679 678 677 676 675 675 674 674 674 673 672 671 671 670 670 670 671 671 672 674 675 677 678 680 683 685 687 689 692 694 696 699 701 705